Change the Weather History Date:

Wednesday, September 18, 2013

  Actual Average Record
Temperature  
Mean Temperature 44 °F -  
Max Temperature 51 °F - - ()
Min Temperature 36 °F - - ()
Degree Days  
Heating Degree Days 22    
Moisture  
Dew Point 39 °F    
Average Humidity 92    
Maximum Humidity 99    
Minimum Humidity 71    
Precipitation  
Precipitation 0.64 in - - ()
Sea Level Pressure  
Sea Level Pressure 29.94 in    
Wind  
Wind Speed 3 mph ()    
Max Wind Speed 7 mph    
Max Gust Speed -    
T = Trace of Precipitation, MM = Missing Value Source: Averaged Metar Reports

Daily Weather History Graph

Daily Weather History Graph

Search for Another Location

Airport or City:

Trip Planner

Search our weather history database for the weather conditions in past years. The results will help you decide how hot, cold, wet, or windy it might be!

Date:

Astronomy

Sep. 18, 2013 Rise Set
Actual Time 7:22 AM MDT 7:48 PM MDT
Civil Twilight 6:49 AM MDT 8:21 PM MDT
Nautical Twilight 6:09 AM MDT 9:01 PM MDT
Astronomical Twilight 5:28 AM MDT 9:42 PM MDT
Moon 7:11 PM MDT (9/18) 6:28 AM MDT (9/18)
Length of Visible Light 13h 32m
Length of Day
12h 26m
Waxing Gibbous, 99% of the Moon is Illuminated
Sep 18
Waxing Gibbous
Sep 19
Full
Sep 26
Last Quarter
Oct 4
New
Oct 11
First Quarter

Hourly Weather History & Observations

Time (MDT) Temp. Windchill Dew Point Humidity Pressure Visibility Wind Dir Wind Speed Gust Speed Precip Events Conditions
12:00 AM 51.1 °F - 42.1 °F 71% 29.73 in - NNE 6.9 mph - N/A   Unknown
1:00 AM 50.2 °F - 41.9 °F 73% 29.74 in - NE 6.9 mph - N/A   Unknown
2:00 AM 45.9 °F 42.9 °F 41.9 °F 86% 29.77 in - East 5.8 mph - 0.02 in   Unknown
3:00 AM 42.3 °F 39.4 °F 40.3 °F 93% 29.81 in - NNE 4.6 mph - 0.06 in   Unknown
4:00 AM 40.6 °F 36.0 °F 38.8 °F 93% 29.83 in - NNE 6.9 mph - 0.11 in   Unknown
5:00 AM 40.1 °F - 39.2 °F 97% 29.83 in - ENE 2.3 mph - 0.04 in   Unknown
6:00 AM 39.9 °F - 38.8 °F 96% 29.84 in - NE 1.2 mph - 0.02 in   Unknown
7:00 AM 39.9 °F - 39.2 °F 97% 29.86 in - NE 2.3 mph - 0.03 in   Unknown
8:00 AM 39.4 °F 37.2 °F 38.3 °F 96% 29.88 in - East 3.5 mph - 0.05 in   Unknown
9:00 AM 38.8 °F 35.4 °F 37.9 °F 97% 29.91 in - NE 4.6 mph - N/A   Unknown
10:00 AM 38.8 °F 35.4 °F 37.2 °F 94% 29.92 in - ENE 4.6 mph - N/A   Unknown
11:00 AM 38.7 °F 36.3 °F 37.6 °F 96% 29.94 in - NE 3.5 mph - 0.04 in   Unknown
12:00 PM 38.1 °F 35.7 °F 37.2 °F 97% 29.96 in - NNE 3.5 mph - 0.09 in   Unknown
1:00 PM 36.5 °F 33.9 °F 34.9 °F 94% 29.99 in - North 3.5 mph - 0.09 in   Unknown
2:00 PM 37.0 °F - 35.8 °F 95% 30.01 in - North 1.2 mph - 0.07 in   Unknown
3:00 PM 39.2 °F - 37.0 °F 92% 30.02 in - ENE 1.2 mph - 0.02 in   Unknown
4:00 PM 41.2 °F - 38.1 °F 89% 30.02 in - South 1.2 mph - N/A   Unknown
5:00 PM 42.6 °F - 38.8 °F 86% 30.01 in - SE 2.3 mph - N/A   Unknown
6:00 PM 42.6 °F - 39.6 °F 89% 30.02 in - SE 2.3 mph - N/A   Unknown
7:00 PM 42.3 °F - 40.5 °F 93% 30.04 in - Calm Calm - N/A   Unknown
8:00 PM 41.4 °F - 40.3 °F 96% 30.06 in - ENE 1.2 mph - N/A   Unknown
9:00 PM 41.2 °F - 40.6 °F 98% 30.08 in - Calm Calm - N/A   Unknown
10:00 PM 41.2 °F - 40.8 °F 99% 30.10 in - Calm Calm - N/A   Unknown
11:00 PM 41.5 °F - 41.2 °F 99% 30.12 in - West 1.2 mph - N/A   Unknown